Regional Weather Roundup
Issued by NWS Lake Charles, LA

Current Version | Previous Version | Text Only | Print | Product List | Glossary On
Versions: 1 2 3 4 5 6 7 8 9 10 11 12 13 14 15 16 17 18 19 20 21 22 23 24 25 26 27 28 29 30 31 32 33 34 35 36 37 38 39 40 41 42 43 44 45 46 47 48 49 50
000
ASUS44 KLCH 231910
RWRLCH
RWRLCH
REGIONAL WEATHER ROUNDUP
NATIONAL WEATHER SERVICE LAKE CHARLES LA
200 PM CDT WED JUL 23 2014

Note: "fair" indicates few or no clouds below 12,000 feet with no
significant weather and/or obstructions to visibility.


ACROSS SOUTHEAST TEXAS

CITY           SKY/WX    TMP DP  RH WIND       PRES   REMARKS
BEAUMONT       MOSUNNY   93  71  48 E6        30.02F HX 100
BEAUMONT CITY    N/A     91  72  54 N3        30.03F
ORANGE         PTCLDY    89  71  55 CALM      30.04F
JASPER         PTSUNNY   87  72  61 NW5       30.07F
$$

ACROSS CENTRAL LOUISIANA

CITY           SKY/WX    TMP DP  RH WIND       PRES   REMARKS
LEESVILLE      MOSUNNY   89  70  53 CALM      30.05F
FULLERTON      MOCLDY    92  71  50 VRB3      30.02F
ALEXANDRIA INT LGT RAIN  89  72  56 CALM      30.02F
ESLER FIELD    MOSUNNY   92  72  51 E8        30.04F
DERIDDER       MOCLDY    89  72  57 CALM      30.06F
OAKDALE        PTCLDY    89  73  58 CALM      30.03F
OPELOUSAS      MOCLDY    86  72  62 NE8       30.04S
$$

ACROSS SOUTHWEST AND SOUTH CENTRAL LOUISIANA

CITY           SKY/WX    TMP DP  RH WIND       PRES   REMARKS
SULPHUR        MOCLDY    88  73  60 N3        30.04F
LAKE CHARLES   MOSUNNY   91  72  53 N6        30.03F
CHENNAULT INT  NOT AVBL
CAMERON PHI    CLEAR     88  73  62 N8G14     30.03F
DEQUINCY         N/A     89  71  56 CALM      30.04F
JENNINGS         N/A     89  74  61 NE6       30.02F
LAFAYETTE      PTSUNNY   90  73  57 VRB5      30.03F
NEW IBERIA     MOSUNNY   90  72  55 NE10      30.03F
ABBEVILLE        N/A     88  73  60 N5        30.03F
PATTERSON      PTSUNNY   75  70  83 W3        30.08S
SALT POINT       N/A     79  73  82 CALM      30.03F
$$

SELECTED SITES ACROSS THE REGION

CITY           SKY/WX    TMP DP  RH WIND       PRES   REMARKS
HOUSTON BUSH   MOSUNNY   91  72  53 NE13G20   30.03F
HOUSTON HOBBY  LGT RAIN  86  74  67 SE9       30.03F
GALVESTON      PTSUNNY   89  75  63 SE8       30.04F
COLLEGE STAT   MOSUNNY   91  71  51 N5        30.05F
CONROE         MOSUNNY   90  70  51 SE7       30.05F
HUNTSVILLE     MOSUNNY   91  70  49 E5        30.06F
LUFKIN         PTSUNNY   91  72  53 N3        30.06F
SHREVEPORT     PTSUNNY   92  69  47 CALM      30.05F
MONROE         PTSUNNY   90  71  53 VRB3      30.04F
NATCHEZ MS     MOSUNNY   84  73  70 N6        30.05F
BATON ROUGE    PTSUNNY   89  72  56 NE6       30.03F
N.O. INTL ARPT PTSUNNY   82  73  74 SE10      30.05F
SLIDELL        PTSUNNY   83  72  69 S8        30.05F
$$

MARINE REPORTS

STATION/POSITION TIME  TEMP    WIND        PRES    VSBY  WAVE
                       AIR SEA DIR/SP/G                  HT/PER
                 (UTC) (F)     (DEG/KT/KT) (MB)    (MI)  (FT/S)
BUOY 30 S HIGH I NOT AVBL
SEA RIM ST PARK  1900   86     160/  8/  9 1017.3F
PORT ARTHUR      1900      87  100/  5/  8 1017.1F
SABINE PASS N    1900   88 85   40/  3/  5 1017.0F
TEXAS POINT      1900   85 86  110/  8/  9 1017.2F
CALCASIEU PASS   1900   87 89   30/  5/  7 1018.0F
LK CHARLES BEACH 1900   88 81              1017.7F
MARSH ISLAND     1800   84      20/  5/  6   N/A
FRESH WATER LOCK 1900   87 88  340/  3/  6 1016.6F
AMERADA PASS     1900   78 84   70/  2/  5 1017.2S
$$


USA.gov is the U.S. government's official web portal to all federal, state and local government web resources and services.